Regional Weather Roundup
Issued by NWS

Home | Current Version | Previous Version | Text Only | Print | Product List | Glossary Off
Versions: 1 2 3 4 5 6 7 8 9 10 11 12 13 14 15 16 17 18 19 20 21 22 23 24 25 26 27 28 29 30 31 32 33 34 35 36 37 38 39 40 41 42 43 44 45 46 47 48 49 50

000
ASUS43 KFSD 222202
RWRSD

WEATHER ROUNDUP FOR SOUTH DAKOTA
NATIONAL WEATHER SERVICE SIOUX FALLS SD
500 PM CDT FRI SEP 22 2017

NOTE: "FAIR" INDICATES FEW OR NO CLOUDS BELOW 12,000 FEET WITH NO
SIGNIFICANT WEATHER AND/OR OBSTRUCTIONS TO VISIBILITY.


SDZ001>005-009-010-012>017-222300-
NORTHWEST AND NORTH CENTRAL SOUTH DAKOTA

CITY           SKY/WX    TMP DP  RH WIND       PRES   REMARKS
BUFFALO          N/A     52  34  50 N20       29.87R
FAITH            N/A     55  41  59 N22       29.86R
MOBRIDGE       CLOUDY    57  49  74 NW18G25   29.78R
$$

SDZ012>016-024>037-041>051-057-063-072>074-222300-
SOUTHWEST AND SOUTH CENTRAL SOUTH DAKOTA

CITY           SKY/WX    TMP DP  RH WIND       PRES   REMARKS
RAPID CTY ARPT SUNNY     61  37  41 N28G39    29.86S
PIERRE         CLOUDY    65  52  62 NW17      29.79R
CUSTER         SUNNY     63  42  46 S12G20    29.90R
ELLSWORTH AFB  SUNNY     59  38  45 N23G32    29.86S
PHILIP         CLOUDY    63  44  50 NW22G29   29.84R
PINE RIDGE     SUNNY     69  43  38 NE12G18   29.85S
SPEARFISH      FAIR      54  39  58 NW13G20   29.93S
WINNER         FAIR      71  54  54 NW17G24   29.78R
$$

SDZ004>011-016>023-039-040-222300-
NORTHEAST SOUTH DAKOTA

CITY           SKY/WX    TMP DP  RH WIND       PRES   REMARKS
ABERDEEN       SUNNY     83  56  39 SW20G30   29.64R
WATERTOWN      MOSUNNY   89  68  49 S17G32    29.67R
BROOKINGS      SUNNY     89  71  55 S24G31    29.70S HX  95
SISSETON         N/A     90  71  53 S14       29.63R HX  96
$$

SDZ017-020-022-023-036>040-048>070-222300-
SOUTHEAST SOUTH DAKOTA

CITY           SKY/WX    TMP DP  RH WIND       PRES   REMARKS
SIOUX FALLS    MOSUNNY   91  71  51 S20G32    29.71S HX  97
HURON          SUNNY     84  57  39 W17       29.68R
CHAMBERLAIN    MOSUNNY   77  56  48 W15       29.75R
MITCHELL       SUNNY     83  57  41 W13       29.69R
YANKTON        CLOUDY    94  69  44 S20G26    29.68R HX  99
$$

ABBREVIATIONS USED IN REMARKS
   TC - TEMPERATURE IN CELSIUS
  WCI - WIND CHILL INDEX
   HX - HEAT INDEX
  VSB - VISIBILITY




USA.gov is the U.S. government's official web portal to all federal, state and local government web resources and services.